Home   Weather   Hilo   Past weeks
Flag for USA

Past Weather in Hilo, Hawaii, USA — Yesterday and Last 2 Weeks

Now
68 °F

Partly cloudy.


Feels Like: 68 °F
Forecast: 68 / 80 °F
Wind: 6 mph from Southwest

Location: Hilo International Airport

Current Time: Dec 10, 2018 at 3:12:04 am

Latest Report: Dec 10, 2018 at 1:53 am


Visibility: 10 mi

Pressure: 30.16 "Hg

Humidity: 84%

Dew Point: 63 °F

Location of HiloLocation

Past Weather in Hilo — Graph

°F

Hilo Temperature Yesterday

Maximum temperature yesterday: 78 °F (at 2:53 pm)
Minimum temperature yesterday: 66 °F (at 2:24 am)
Average temperature yesterday: 72 °F

High & Low Weather Summary for the Past Weeks

 TemperatureHumidityPressure
High82 °F (Nov 29, 1:53 pm)100% (Nov 25, 1:31 am)30.20 "Hg (Nov 25, 1:31 am)
Low65 °F (Nov 27, 1:53 am)52% (Dec 5, 11:53 am)29.87 "Hg (Nov 30, 2:53 pm)
Average73 °F82%30.04 "Hg
* Reported Nov 25 1:10 am — Dec 10 1:53 am, Hilo. Weather by CustomWeather, © 2018

Note: Actual official high and low records may vary slightly from our data, if they occured in-between our weather recording intervals... More about our weather records

Advertising

Hilo Weather History for the Previous 24 Hours

Scroll right to see more
 ConditionsComfort  
Time TempWeatherWind HumidityBarometerVisibility
1:53 am
Mon, Dec 10
68 °FPartly cloudy.6 mph84%30.16 "Hg10 mi
12:53 am68 °FPassing clouds.6 mph87%30.18 "Hg10 mi
11:53 pm
Sun, Dec 9
69 °FPassing clouds.6 mph90%30.17 "Hg10 mi
11:25 pm70 °FPassing clouds.3 mph88%30.18 "Hg10 mi
11:04 pm70 °FPassing clouds.5 mph88%30.19 "Hg10 mi
9:53 pm74 °FPassing clouds.9 mph74%30.18 "Hg10 mi
8:53 pm74 °FPassing clouds.6 mph74%30.17 "Hg10 mi
7:53 pm74 °FClear.7 mph74%30.17 "Hg10 mi
6:53 pm74 °FPartly cloudy.8 mph76%30.16 "Hg10 mi
6:13 pm73 °FPartly cloudy.10 mph78%30.15 "Hg10 mi
5:44 pm75 °FPassing clouds.10 mph74%30.15 "Hg10 mi
5:00 pm74 °FBroken clouds.8 mph79%30.13 "Hg10 mi
4:22 pm73 °FCloudy.10 mph78%30.12 "Hg10 mi
4:07 pm75 °FPartly sunny.12 mph76%30.11 "Hg10 mi
3:53 pm75 °FLight rain. Cloudy.10 mph79%30.11 "Hg8 mi
2:53 pm78 °FBroken clouds.9 mph69%30.10 "Hg10 mi
1:53 pm75 °FOvercast.7 mph74%30.11 "Hg10 mi
12:53 pm77 °FMostly cloudy.13 mph71%30.13 "Hg10 mi
12:05 pm77 °FMore clouds than sun.10 mph69%30.15 "Hg10 mi
11:53 am76 °FMostly cloudy.13 mph77%30.15 "Hg10 mi
10:53 am77 °FScattered clouds.10 mph71%30.18 "Hg10 mi
10:24 am77 °FBroken clouds.12 mph69%30.19 "Hg10 mi
9:53 am73 °FMostly cloudy.3 mph84%30.19 "Hg10 mi
9:03 am72 °FLight rain. Mostly cloudy.No wind88%30.20 "Hg10 mi
8:53 am72 °FLight rain. Mostly cloudy.6 mph84%30.19 "Hg3 mi
8:17 am72 °FMostly cloudy.7 mph83%30.18 "Hg10 mi
8:08 am71 °FLight rain. Fog.6 mph87%30.18 "Hg2 mi
7:53 am73 °FPartly sunny.13 mph79%30.17 "Hg10 mi
7:39 am72 °FScattered clouds.No wind83%30.17 "Hg10 mi
6:53 am69 °FMostly cloudy.5 mph90%30.14 "Hg10 mi
6:16 am70 °FLight rain. Mostly cloudy.9 mph88%30.14 "Hg10 mi
5:53 am71 °FMostly cloudy.10 mph84%30.13 "Hg10 mi
5:32 am70 °FMostly cloudy.6 mph88%30.13 "Hg9 mi
4:53 am69 °FLight rain. Mostly cloudy.3 mph90%30.11 "Hg9 mi
4:14 am70 °FOvercast.5 mph88%30.11 "Hg10 mi
4:07 am69 °FMostly cloudy.6 mph90%30.11 "Hg10 mi
Weather by CustomWeather, © 2018

See weather overview